Hourly Data Report for August 01, 2006

TORONTO CITY
ONTARIO

43°40'00.000" N
79°24'00.000" W
112.50 m
6158355
71508
XTO

Download Data

Hourly Data (August 2006)
Hourly Data Report for August 1, 2006
TIME
LST
Temp Definition
°C
Dew Point Definition
°C
Rel Hum Definition
%
Precip. Amount Definition
mm

Wind Dir Definition
10's deg

Wind Spd Definition
km/h
Visibility Definition
km
Stn Press Definition
kPa
Hmdx Definition


Wind Chill Definition


Weather Definition


00:00 27.4 25.1 87   LegendMM LegendMM   99.62 40   LegendNANA
01:00 28.2 25.9 87   LegendMM LegendMM   99.57 42   LegendNANA
02:00 27.2 25.1 88   LegendMM LegendMM   99.61 40   LegendNANA
03:00 26.4 25.0 92   LegendMM LegendMM   99.62 39   LegendNANA
04:00 25.6 24.5 94   LegendMM LegendMM   99.63 37   LegendNANA
05:00 24.9 23.8 94   LegendMM LegendMM   99.65 36   LegendNANA
06:00 25.2 24.5 96   LegendMM LegendMM   99.65 37   LegendNANA
07:00 27.8 25.8 89   LegendMM LegendMM   99.67 41   LegendNANA
08:00 29.3 26.1 83   LegendMM LegendMM   99.68 43   LegendNANA
09:00 31.8 26.7 74   LegendMM LegendMM   99.66 46   LegendNANA
10:00 33.4 26.7 68   LegendMM LegendMM   99.67 48   LegendNANA
11:00 33.2 25.9 66   LegendMM LegendMM   99.66 47   LegendNANA
12:00 33.5 25.9 65   LegendMM LegendMM   99.66 47   LegendNANA
13:00 34.0 25.8 62   LegendMM LegendMM   99.61 47   LegendNANA
14:00 36.6 22.3 44   LegendMM LegendMM   99.59 46   LegendNANA
15:00 36.5 23.5 47   LegendMM LegendMM   99.57 47   LegendNANA
16:00 36.2 22.5 45   LegendMM LegendMM   99.53 46   LegendNANA
17:00 35.5 23.5 50   LegendMM LegendMM   99.51 46   LegendNANA
18:00 35.0 24.4 54   LegendMM LegendMM   99.52 47   LegendNANA
19:00 32.6 26.1 69   LegendMM LegendMM   99.54 46   LegendNANA
20:00 29.7 24.7 75   LegendMM LegendMM   99.57 42   LegendNANA
21:00 29.2 24.9 78   LegendMM LegendMM   99.63 41   LegendNANA
22:00 28.8 25.0 80   LegendMM LegendMM   99.61 41   LegendNANA
23:00 27.5 24.2 82   LegendMM LegendMM   99.59 39   LegendNANA

Notes on Data Quality.

Legend

  • E = Estimated
  • M = Missing
  • NA = Not Available*
  • [empty] = Indicates an unobserved value
Date modified: